When you browse on this site, cookies collect data to enhance your experience and personalize the content and advertising you see.
Visit our Privacy Policy to learn more. By continuing to use the site, you agree to this use of cookies and data.
  • en France
  • Liste des pays
  • À 7 jours
  • Température de l'eau
  • Carte météo
  • Widgets météo
  • user-avatar
    Se connecter

    Météo par heure à Bunbury

    Ce jour, 2 Juin, Mardi

    Heure Température Précipitation Vent Pression Humidité
    00:00 +12°C° 0 mm 3 m/s 769 mmHg 88%
    01:00 +11°C° 0 mm 3 m/s 768 mmHg 88%
    02:00 +11°C° 0 mm 3 m/s 768 mmHg 88%
    03:00 +11°C° 0 mm 3 m/s 768 mmHg 88%
    04:00 +11°C° 0 mm 3 m/s 768 mmHg 88%
    05:00 +11°C° 0 mm 3 m/s 768 mmHg 87%
    06:00 +11°C° 0 mm 3 m/s 768 mmHg 86%
    07:00 +11°C° 0 mm 3 m/s 769 mmHg 85%
    08:00 +11°C° 0 mm 4 m/s 769 mmHg 84%
    09:00 +13°C° 0 mm 3 m/s 769 mmHg 77%
    10:00 +16°C° 0 mm 3 m/s 768 mmHg 70%
    11:00 +18°C° 0 mm 3 m/s 768 mmHg 63%
    12:00 +19°C° 0 mm 2 m/s 768 mmHg 60%
    13:00 +20°C° 0 mm 2 m/s 767 mmHg 57%
    14:00 +22°C° 0 mm 1 m/s 766 mmHg 54%
    15:00 +20°C° 0 mm 1 m/s 766 mmHg 59%
    16:00 +19°C° 0 mm 1 m/s 766 mmHg 65%
    17:00 +17°C° 0 mm 2 m/s 767 mmHg 71%
    18:00 +17°C° 0 mm 2 m/s 767 mmHg 71%
    19:00 +16°C° 0 mm 2 m/s 767 mmHg 72%
    20:00 +16°C° 0 mm 3 m/s 767 mmHg 73%
    21:00 +16°C° 0 mm 3 m/s 767 mmHg 72%
    22:00 +16°C° 0 mm 3 m/s 767 mmHg 70%
    23:00 +14°C° 0 mm 3 m/s 767 mmHg 69%

    Demain, 3 Juin, Mercredi

    Heure Température Précipitation Vent Pression Humidité
    00:00 +14°C° 0 mm 3 m/s 767 mmHg 69%
    01:00 +14°C° 0 mm 3 m/s 766 mmHg 68%
    02:00 +14°C° 0 mm 3 m/s 766 mmHg 68%
    03:00 +13°C° 0 mm 3 m/s 766 mmHg 69%
    04:00 +13°C° 0 mm 3 m/s 766 mmHg 71%
    05:00 +13°C° 0 mm 3 m/s 766 mmHg 72%
    06:00 +13°C° 0 mm 3 m/s 766 mmHg 71%
    07:00 +13°C° 0 mm 3 m/s 766 mmHg 70%
    08:00 +13°C° 0 mm 3 m/s 766 mmHg 69%
    09:00 +15°C° 0 mm 4 m/s 766 mmHg 64%
    10:00 +18°C° 0 mm 4 m/s 766 mmHg 59%
    11:00 +20°C° 0 mm 4 m/s 766 mmHg 54%
    12:00 +21°C° 0 mm 4 m/s 765 mmHg 53%
    13:00 +21°C° 0 mm 4 m/s 765 mmHg 52%
    14:00 +22°C° 0 mm 3 m/s 764 mmHg 52%
    15:00 +21°C° 0 mm 3 m/s 764 mmHg 57%
    16:00 +20°C° 0 mm 2 m/s 765 mmHg 63%
    17:00 +18°C° 0 mm 2 m/s 765 mmHg 69%
    18:00 +18°C° 0 mm 2 m/s 765 mmHg 71%
    19:00 +17°C° 0 mm 2 m/s 765 mmHg 74%
    20:00 +16°C° 0 mm 2 m/s 765 mmHg 76%
    21:00 +15°C° 0 mm 2 m/s 765 mmHg 75%
    22:00 +15°C° 0 mm 2 m/s 765 mmHg 74%
    23:00 +15°C° 0 mm 2 m/s 765 mmHg 72%

    Après-demain, 4 Juin, Jeudi

    Heure Température Précipitation Vent Pression Humidité
    00:00 +14°C° 0 mm 2 m/s 765 mmHg 71%
    01:00 +14°C° 0 mm 2 m/s 765 mmHg 70%
    02:00 +14°C° 0 mm 2 m/s 765 mmHg 69%
    03:00 +14°C° 0 mm 2 m/s 765 mmHg 68%
    04:00 +14°C° 0 mm 2 m/s 765 mmHg 68%
    05:00 +14°C° 0 mm 1 m/s 765 mmHg 68%
    06:00 +14°C° 0 mm 2 m/s 765 mmHg 67%
    07:00 +15°C° 0 mm 2 m/s 765 mmHg 67%
    08:00 +15°C° 0 mm 2 m/s 766 mmHg 66%
    09:00 +17°C° 0 mm 2 m/s 766 mmHg 64%
    10:00 +19°C° 0 mm 1 m/s 766 mmHg 62%
    11:00 +21°C° 0 mm 1 m/s 766 mmHg 59%
    12:00 +21°C° 0 mm 1 m/s 766 mmHg 60%
    13:00 +22°C° 0 mm 1 m/s 766 mmHg 60%
    14:00 +22°C° 0 mm 1 m/s 765 mmHg 61%
    15:00 +21°C° 0 mm 1 m/s 766 mmHg 67%
    16:00 +20°C° 0 mm 1 m/s 766 mmHg 73%
    17:00 +18°C° 0 mm 2 m/s 766 mmHg 79%
    18:00 +17°C° 0 mm 2 m/s 767 mmHg 83%
    19:00 +16°C° 0 mm 2 m/s 767 mmHg 86%
    20:00 +14°C° 0 mm 3 m/s 767 mmHg 89%
    21:00 +14°C° 0 mm 3 m/s 767 mmHg 90%
    22:00 +14°C° 0 mm 3 m/s 768 mmHg 91%
    23:00 +13°C° 0 mm 3 m/s 768 mmHg 92%

    5 Juin, Vendredi

    Heure Température Précipitation Vent Pression Humidité
    00:00 +13°C° 0 mm 3 m/s 768 mmHg 92%
    01:00 +13°C° 0 mm 3 m/s 768 mmHg 92%
    02:00 +12°C° 0 mm 3 m/s 767 mmHg 92%
    03:00 +12°C° 0 mm 3 m/s 768 mmHg 92%
    04:00 +12°C° 0 mm 3 m/s 768 mmHg 93%
    05:00 +12°C° 0 mm 3 m/s 768 mmHg 93%
    06:00 +12°C° 0 mm 3 m/s 768 mmHg 92%
    07:00 +12°C° 0 mm 3 m/s 768 mmHg 92%
    08:00 +12°C° 0 mm 3 m/s 769 mmHg 92%
    09:00 +14°C° 0 mm 3 m/s 769 mmHg 83%
    10:00 +17°C° 0 mm 2 m/s 769 mmHg 75%
    11:00 +20°C° 0 mm 2 m/s 769 mmHg 66%
    12:00 +20°C° 0 mm 2 m/s 768 mmHg 61%
    13:00 +22°C° 0 mm 1 m/s 767 mmHg 56%
    14:00 +23°C° 0 mm 1 m/s 767 mmHg 51%
    15:00 +22°C° 0 mm 1 m/s 767 mmHg 56%
    16:00 +20°C° 0 mm 2 m/s 767 mmHg 62%
    17:00 +19°C° 0 mm 2 m/s 767 mmHg 67%
    18:00 +18°C° 0 mm 3 m/s 767 mmHg 68%
    19:00 +17°C° 0 mm 3 m/s 767 mmHg 69%
    20:00 +15°C° 0 mm 4 m/s 767 mmHg 70%
    21:00 +15°C° 0 mm 4 m/s 767 mmHg 70%
    22:00 +15°C° 0 mm 4 m/s 767 mmHg 70%
    23:00 +15°C° 0 mm 4 m/s 767 mmHg 69%

    6 Juin, Samedi

    Heure Température Précipitation Vent Pression Humidité
    00:00 +14°C° 0 mm 4 m/s 767 mmHg 70%
    01:00 +14°C° 0 mm 4 m/s 766 mmHg 70%
    02:00 +14°C° 0 mm 3 m/s 766 mmHg 70%
    03:00 +14°C° 0 mm 3 m/s 766 mmHg 71%
    04:00 +14°C° 0 mm 3 m/s 766 mmHg 72%
    05:00 +14°C° 0 mm 3 m/s 765 mmHg 73%
    06:00 +13°C° 0 mm 3 m/s 765 mmHg 74%
    07:00 +13°C° 0 mm 3 m/s 765 mmHg 75%
    08:00 +13°C° 0 mm 3 m/s 766 mmHg 77%
    09:00 +16°C° 0 mm 3 m/s 765 mmHg 70%
    10:00 +18°C° 0 mm 2 m/s 765 mmHg 64%
    11:00 +20°C° 0 mm 2 m/s 765 mmHg 58%
    12:00 +20°C° 0 mm 2 m/s 764 mmHg 57%
    13:00 +21°C° 0 mm 3 m/s 764 mmHg 56%
    14:00 +22°C° 0 mm 3 m/s 763 mmHg 55%
    15:00 +21°C° 0 mm 2 m/s 763 mmHg 60%
    16:00 +20°C° 0 mm 2 m/s 763 mmHg 66%
    17:00 +19°C° 0 mm 1 m/s 763 mmHg 72%
    18:00 +19°C° 0 mm 1 m/s 763 mmHg 72%
    19:00 +19°C° 0 mm 1 m/s 763 mmHg 73%
    20:00 +19°C° 0 mm 1 m/s 764 mmHg 73%
    21:00 +19°C° 0.1 mm 1 m/s 764 mmHg 73%
    22:00 +19°C° 0.1 mm 1 m/s 764 mmHg 74%
    23:00 +17°C° 0.1 mm 2 m/s 764 mmHg 74%

    7 Juin, Dimanche

    Heure Température Précipitation Vent Pression Humidité
    00:00 +17°C° 0.2 mm 2 m/s 764 mmHg 79%
    01:00 +17°C° 0.2 mm 2 m/s 763 mmHg 84%
    02:00 +16°C° 0.2 mm 3 m/s 763 mmHg 88%
    03:00 +16°C° 0.1 mm 3 m/s 763 mmHg 90%
    04:00 +16°C° 0.1 mm 3 m/s 763 mmHg 91%
    05:00 +14°C° 0.1 mm 3 m/s 764 mmHg 93%
    06:00 +14°C° 0 mm 3 m/s 764 mmHg 93%
    07:00 +15°C° 0 mm 2 m/s 764 mmHg 93%
    08:00 +15°C° 0 mm 2 m/s 765 mmHg 92%
    09:00 +17°C° 0 mm 2 m/s 765 mmHg 86%
    10:00 +18°C° 0 mm 2 m/s 765 mmHg 80%
    11:00 +20°C° 0 mm 3 m/s 765 mmHg 74%
    12:00 +20°C° 0 mm 3 m/s 765 mmHg 71%
    13:00 +20°C° 0 mm 3 m/s 764 mmHg 69%
    14:00 +21°C° 0 mm 3 m/s 764 mmHg 67%
    15:00 +20°C° 0 mm 3 m/s 764 mmHg 72%
    16:00 +19°C° 0 mm 3 m/s 764 mmHg 77%
    17:00 +18°C° 0 mm 4 m/s 765 mmHg 82%
    18:00 +17°C° 0 mm 4 m/s 765 mmHg 85%
    19:00 +16°C° 0 mm 3 m/s 766 mmHg 88%
    20:00 +14°C° 0 mm 3 m/s 766 mmHg 91%
    21:00 +13°C° 0 mm 3 m/s 766 mmHg 91%
    22:00 +13°C° 0 mm 3 m/s 766 mmHg 91%
    23:00 +14°C° 0 mm 2 m/s 766 mmHg 91%
    Voir plus